SL-4 R/B (49128 NORAD) Tracking and Keplerian Element Data

This shows tracking and keplerian element data for the satellite.

Feedback or suggestion? Click here.




ElementValue
Catalog49128
NameSL-4 R/B
Epoch Orbit461
Epoch Day281.78328028
Epoch Year2021
RAAN8.9084
Inclination96.3451
Eccentricity0.0011793
Argument of Perigee160.6603
Mean Anonmoly199.5125
Mean Motion15.95719995
Decay Rate0.00110343
L11 49128U 21081B 21281.78328028 .00110343 63270-5 27514-3 0 9995
L22 49128 96.3451 8.9084 0011793 160.6603 199.5125 15.95719995 4619

Live tracking and technical data element details for SL-4 R/B (NORAD 49128). SL-4 R/B can be tracked NOW for your location showing map with azimuth and elevation plus other details from your city location.

Track the satellite on the map from your city or location and see movement details for azimuth, elevation, latitude, longitude, range, height, and movement on the map or in text.







IsCatalogInMostPopularTable: catalog: 49128, numindb: 11
Update: records affected: 1



GetName: 49128 SL-4 R/B

Hit Count: updated at: Thu, 28 Oct 2021 10:37:44 GMT